Temperature
11 11 11 11 11 11 11 11 11 11 11 11 11 11 11 11 11 11 11 12 12 12 12 12 12 12 12 12 12 12 11 11 11 11 11 11 11 11 11 11 11 11 11
11 11 11 11 11 11 11 11 10 10 11 11 11 11 11 11 11 11 11 11 11 11 11 11 11 11 11 11 11 11 11 11 11 11 11 11 11 11 11 11 10 10 10
10 10 10 10 10 10 10 10 10 10 10 10 10 10 11 11 11 11 11 11 11 11 11 11 11 11 11 11 11 11 11 11 10 10 10 10 10 10 10 10 10 10 10
10 10 10 10 10 10 10 10 10 10 10 10 10 10 10 10 10 10 10 10 10 10 10 10 10 10 10 10 10 10 10 10 10 10 10 10 10 10 10 10 10 10 10
10 10 10 10 9 9 9 9 9 9 9 9 10 10 10 10 10 10 10 10 10 10 10 10 10 10 10 10 10 10 10 10 10 10 10 10 10 10 9 9 9 9 9
9 9 9 9 9 9 9 9 9 9 9 9 9 9 9 9 9 9 9 9 9 10 10 10 10 10 9 9 9 9 9 9 9 9 9 9 9 9 9 9 9 9 9
9 9 9 9 9 9 9 9 9 9 9 9 9 8 8 9 9 9 9 9 9 9 9 9 9 9 9 9 9 9 9 9 9 9 9 9 9 9 9 8 8 8 8
9 9 9 9 8 8 8 8 8 8 8 8 8 8 8 8 8 8 8 8 8 9 9 9 9 9 8 9 9 9 8 8 8 8 8 8 8 8 8 8 8 8 8
8 8 8 8 8 8 8 8 8 8 8 8 8 8 7 8 7 7 8 8 8 8 8 8 8 8 8 8 8 8 8 8 8 8 8 8 8 8 8 8 8 8 7
8 8 8 8 8 8 8 8 8 8 8 7 7 7 7 7 7 7 7 7 7 7 8 8 8 8 8 8 8 8 8 8 7 7 7 7 7 7 7 7 7 7 7
7 7 7 7 7 7 7 7 7 7 7 7 7 7 7 7 7 6 6 6 7 7 7 7 7 7 7 7 7 7 7 7 7 7 7 7 7 7 7 7 7 7 7
7 7 7 7 7 7 7 7 7 7 7 7 7 7 7 6 6 6 6 6 6 6 7 7 7 7 7 7 7 7 7 7 6 6 6 6 6 6 6 6 6 6 6
6 6 6 6 6 6 6 6 6 7 6 6 6 6 6 6 6 6 6 5 5 6 6 6 6 6 6 6 6 6 6 6 6 6 6 6 6 6 6 6 6 6 6
6 6 6 6 6 6 6 6 6 6 6 6 6 6 6 5 5 5 5 5 5 5 5 5 5 6 6 6 6 6 6 6 6 6 5 5 5 5 5 5 5 5 5
5 5 5 5 5 5 6 6 6 6 5 5 5 5 5 5 5 5 5 5 5 4 5 5 5 5 5 5 5 5 5 5 5 5 5 5 5 5 5 5 5 5 5
5 5 5 5 5 5 5 5 5 5 5 5 5 5 5 5 4 4 4 4 4 4 4 4 5 5 5 5 5 5 5 5 5 5 5 5 5 5 5 5 5 5 4
4 4 4 4 4 4 4 4 4 4 4 4 4 4 4 4 4 4 4 4 4 4 4 4 4 4 4 4 4 4 4 4 4 5 4 4 4 4 4 4 4 4 4
4 4 4 4 4 4 4 4 4 4 4 4 4 4 4 4 4 4 4 4 4 4 4 3 4 4 4 4 4 4 4 4 4 4 4 4 4 4 4 4 4 4 3
3 3 3 3 3 3 3 3 3 3 3 3 3 3 3 3 3 3 3 3 3 3 3 3 3 3 3 3 3 4 3 3 3 3 3 3 3 3 3 3 3 3 3
2 3 3 3 3 3 3 3 3 3 3 3 3 3 3 3 3 3 3 3 3 3 3 3 3 3 3 3 3 3 3 3 3 3 3 3 3 3 3 3 3 3 3
2 2 2 2 2 2 2 2 2 2 2 2 2 2 2 2 2 2 2 2 2 2 2 2 2 2 2 2 2 2 2 2 2 2 2 2 2 2 2 2 2 2 2
1 1 1 1 2 2 2 2 1 1 1 2 2 2 2 2 2 2 2 2 2 2 2 2 2 2 2 2 2 2 2 1 1 2 2 2 2 2 2 2 2 2 2
1 1 1 1 1 1 1 1 1 1 1 1 1 1 1 1 1 1 1 1 1 1 1 1 1 1 1 1 1 1 1 1 1 1 1 1 1 1 1 1 1 1 1
0 0 0 0 0 0 0 0 0 0 1 1 1 1 1 1 1 1 1 1 1 1 1 1 1 1 1 1 0 0 0 0 0 0 0 -0 0 0 0 0 1 1 1
-1 -1 -1 -1 -0 -0 -0 -0 -0 -0 -0 -0 0 0 0 0 0 0 0 0 0 0 0 0 0 0 0 0 -0 -0 -0 -1 -1 -1 -1 -1 -1 -1 -0 -0 -0 -0 -0
-1 -1 -1 -1 -1 -1 -1 -1 -1 -1 -1 -1 -1 -1 -1 -0 -0 -0 -1 -1 -0 -0 -0 -0 -0 -0 -0 -0 -1 -1 -1 -1 -1 -2 -1 -1 -1 -2 -2 -1 -1 -1 -1
Wind_Speed
3 3 3 3 2 3 3 3 3 4 3 3 3 4 4 4 4 3 4 5 4 4 5 6 6 8 8 8 8 8 7 7 7 7 7 7 7 8 8 8 7 7 7
4 3 3 3 2 2 3 3 3 3 3 2 3 3 3 3 3 3 3 5 6 5 4 6 6 6 7 7 7 7 8 8 8 7 7 6 7 8 7 7 7 6 5
4 4 3 3 3 3 3 3 3 3 2 2 2 2 2 2 3 3 3 3 4 4 4 5 6 6 7 7 7 7 8 8 8 7 7 7 7 7 7 6 6 5 5
4 4 3 3 3 3 3 3 3 3 3 2 2 1 1 2 2 2 2 2 2 3 4 4 4 5 6 7 7 7 7 7 7 8 7 8 7 7 7 6 6 5 5
4 4 3 3 4 3 3 3 3 3 3 2 2 1 1 1 1 2 2 2 2 3 3 4 4 5 5 5 6 7 7 7 7 8 8 8 8 8 7 7 5 5 5
4 4 3 4 4 3 3 3 3 3 2 2 2 1 1 0 1 2 2 2 2 3 3 3 3 4 4 4 5 6 7 6 6 7 8 7 7 7 7 7 6 5 5
5 4 3 3 3 3 4 4 3 3 2 2 2 1 1 1 0 0 1 2 2 2 3 3 2 2 3 4 4 5 6 7 7 7 7 7 7 7 7 6 6 6 6
5 4 4 3 3 3 4 4 4 2 2 2 2 2 1 1 1 1 0 1 2 2 2 2 2 2 2 3 3 4 5 6 7 7 8 8 8 8 7 7 7 7 7
4 4 4 4 3 3 4 4 5 4 3 2 2 2 2 3 1 1 1 1 2 2 2 2 2 3 3 2 3 4 5 6 6 7 7 7 8 8 8 8 8 8 8
3 4 4 4 4 3 4 4 4 3 4 4 2 1 1 1 2 2 2 2 2 3 3 3 3 3 3 3 2 2 3 5 5 7 7 7 8 9 9 9 8 8 8
3 3 4 4 4 4 4 4 4 4 4 5 3 2 1 1 2 3 3 3 3 3 3 3 3 3 3 3 3 3 3 3 4 5 6 7 8 8 8 8 8 8 8
2 2 3 3 3 3 4 4 4 5 5 5 4 4 3 3 3 3 3 3 3 3 3 3 3 3 3 3 3 4 4 5 5 6 6 7 7 7 7 7 8 8 8
2 2 2 2 3 3 3 3 4 5 5 5 5 4 4 4 3 3 3 3 3 3 3 3 3 3 3 4 4 5 6 6 6 7 7 8 7 7 7 8 8 8 9
2 2 2 2 2 3 3 3 3 4 4 4 4 5 4 4 3 4 4 4 4 4 4 4 2 3 4 4 4 5 6 7 7 8 8 8 7 7 7 8 9 9 9
2 2 1 1 1 2 2 3 2 3 3 3 3 3 3 3 3 4 4 5 5 5 5 4 3 3 4 4 5 5 6 6 7 7 8 7 7 7 7 8 8 9 10
1 2 1 1 1 1 2 2 2 2 2 2 2 3 3 3 3 3 4 4 5 5 5 3 3 2 3 3 4 6 6 6 7 7 7 7 7 8 9 10 10 10 11
1 2 2 2 1 2 2 2 2 2 3 2 2 3 3 3 3 3 3 3 4 4 5 4 3 2 3 4 3 5 5 6 7 8 8 8 9 9 9 10 10 11 11
1 1 2 2 2 2 2 2 2 3 3 3 3 3 3 2 3 3 3 4 4 4 5 5 4 3 4 4 3 4 4 5 7 8 9 9 10 10 9 10 11 11 11
1 1 2 2 2 2 2 2 2 3 3 3 3 3 3 3 3 3 3 4 3 3 4 4 4 2 3 2 3 3 4 4 6 7 8 10 10 10 9 10 11 11 11
1 1 1 2 2 2 2 2 2 2 2 2 2 3 3 3 4 3 3 4 3 3 3 3 3 2 2 2 3 3 3 3 4 4 6 7 8 9 9 9 10 11 11
0 0 1 1 1 1 1 1 1 1 2 2 2 2 2 2 2 2 2 3 3 3 3 3 3 3 3 2 3 3 3 3 4 3 4 4 5 6 8 9 10 10 11
1 1 0 0 1 1 1 1 1 2 2 2 2 2 1 2 2 2 2 3 3 4 4 4 4 4 5 4 3 3 3 3 3 2 3 4 4 5 6 8 8 9 10
1 1 1 0 0 0 0 1 1 2 2 2 2 2 1 1 1 2 1 2 2 2 3 5 5 5 5 4 4 4 4 4 5 3 3 5 4 5 6 7 8 9 10
1 0 1 1 1 1 0 1 1 2 2 2 2 2 2 2 1 2 1 2 2 3 4 4 5 5 4 4 4 5 5 4 4 3 3 4 4 5 5 6 7 9 10
1 1 1 1 1 1 1 0 1 1 1 1 1 2 2 2 1 2 2 2 3 3 2 3 4 4 3 3 3 3 3 3 4 4 3 4 4 4 5 5 6 7 8
0 1 1 1 1 1 1 1 1 1 1 1 1 1 2 2 2 1 2 3 4 4 3 2 3 3 4 3 3 4 4 4 3 3 2 3 3 2 3 3 4 4 6
Wind_Direction
174 169 166 155 162 164 165 167 172 172 179 179 180 185 179 181 177 173 155 146 161 160 160 161 159 158 156 153 153 152 149 148 146 143 144 142 138 129 127 128 124 120 121
178 175 174 165 166 172 171 174 173 171 178 169 173 177 176 170 167 168 161 150 147 151 159 168 167 161 160 161 163 164 162 157 154 149 151 155 146 138 133 132 131 130 129
183 177 178 175 171 165 166 170 172 173 158 153 157 151 150 158 159 157 160 160 153 143 149 161 168 166 164 162 165 166 166 167 161 158 160 158 149 146 147 144 147 145 142
182 177 181 182 179 168 166 171 177 170 166 161 153 139 147 154 163 157 161 165 161 159 155 152 156 163 165 170 173 169 169 173 171 168 169 169 166 165 160 158 158 159 158
172 175 178 181 182 173 169 173 172 167 163 153 138 124 122 159 168 172 169 168 164 168 169 149 151 160 162 173 179 178 180 180 182 181 178 176 178 180 176 176 174 175 175
169 173 177 180 176 172 174 175 167 156 152 144 129 91 64 91 197 194 188 181 173 169 170 158 161 165 162 172 179 184 187 189 188 187 185 181 179 180 177 177 175 174 175
169 170 174 177 182 182 180 177 173 159 155 152 142 117 40 57 86 233 207 200 181 170 164 165 171 178 176 172 173 181 191 196 190 192 194 192 190 187 188 191 193 191 192
173 174 176 177 187 183 181 178 174 173 180 187 180 180 199 208 213 293 271 222 211 188 180 179 187 193 193 188 175 182 195 200 197 199 202 200 198 200 204 205 203 201 200
173 174 182 178 186 187 191 191 191 190 188 196 200 202 200 217 229 208 228 233 236 220 209 202 207 206 204 209 196 187 194 201 202 207 210 211 213 215 214 216 214 215 214
166 169 179 182 186 192 197 196 201 203 191 193 194 254 277 235 211 214 213 227 244 238 232 226 217 208 203 211 212 187 186 208 216 222 222 222 225 224 224 222 221 222 222
160 167 174 181 189 196 199 196 197 201 202 198 196 202 214 255 242 232 241 242 243 245 247 245 234 221 216 217 211 203 190 212 225 233 240 239 234 232 232 230 228 228 233
160 167 175 181 190 197 200 203 203 205 204 200 197 203 205 205 207 222 240 255 255 253 251 252 244 234 228 228 227 225 218 220 231 241 249 251 248 245 241 241 236 234 238
179 189 182 185 188 196 202 205 205 210 204 203 204 212 218 220 213 214 223 244 258 263 256 250 247 244 244 243 242 241 234 237 242 246 252 254 251 250 246 243 240 239 241
190 194 195 191 191 191 195 200 207 214 211 211 212 212 214 213 211 210 218 223 242 248 245 245 241 240 247 249 254 242 242 243 248 250 253 256 253 250 246 245 247 244 242
173 176 182 192 197 190 188 191 203 210 208 214 217 217 219 216 214 220 218 220 232 242 246 237 234 231 236 243 252 248 247 247 246 249 253 250 253 252 246 243 244 243 244
145 154 168 185 192 192 185 188 204 208 202 214 221 221 225 220 215 216 220 231 236 243 250 246 241 242 231 239 248 246 246 245 242 247 250 249 250 253 249 245 241 242 243
138 152 175 179 186 197 196 190 196 198 200 209 218 220 229 230 217 220 224 227 229 233 245 255 256 254 244 245 244 247 249 249 246 246 246 248 250 252 250 245 241 242 243
159 167 185 182 190 202 204 204 207 208 206 211 215 213 224 224 220 221 221 227 233 234 235 244 253 255 254 253 258 253 256 260 255 249 245 249 250 250 249 244 241 241 241
167 177 184 189 197 203 203 207 215 210 217 225 222 220 223 219 222 223 221 225 228 232 235 238 251 269 274 263 265 266 257 257 258 257 252 251 250 247 248 246 243 240 238
148 198 198 198 204 203 198 202 211 212 220 235 237 234 232 228 231 227 226 226 224 224 228 230 242 255 269 272 257 263 264 260 259 260 260 257 252 247 247 247 245 243 240
100 197 205 200 202 213 200 194 206 214 223 227 239 244 244 238 240 236 230 226 222 221 221 223 232 242 247 256 251 253 261 271 268 258 264 257 250 249 248 248 247 244 241
64 70 68 200 209 205 169 199 219 214 223 228 236 257 273 242 224 231 228 224 225 225 226 229 236 241 246 251 253 249 252 265 269 256 264 270 256 258 254 252 252 246 244
52 58 33 43 5 282 181 211 235 233 224 231 240 246 262 267 243 234 229 223 234 253 248 240 242 248 254 252 249 251 250 254 261 274 261 267 261 264 264 264 257 246 246
21 348 338 350 356 354 3 217 230 236 228 237 249 249 245 251 251 232 242 254 256 259 256 251 248 255 262 263 249 252 257 266 283 278 256 265 269 271 274 268 260 257 254
350 336 315 309 328 337 4 252 241 223 217 257 271 270 262 261 240 222 233 246 256 263 261 242 255 270 281 274 258 250 249 254 267 265 253 262 274 279 277 271 268 259 254
302 332 329 317 316 324 355 347 286 234 234 267 288 286 285 269 257 235 244 250 254 258 255 255 253 267 270 263 243 242 243 246 263 261 238 248 267 279 279 275 276 277 263
Height
1528 1529 1530 1531 1532 1533 1534 1535 1536 1537 1538 1539 1540 1542 1543 1544 1546 1547 1547 1548 1549 1550 1551 1552 1553 1554 1554 1555 1556 1556 1557 1558 1558 1559 1560 1560 1561 1562 1562 1563 1563 1564 1564
1526 1527 1528 1529 1530 1531 1532 1533 1534 1535 1537 1538 1539 1540 1541 1543 1544 1545 1546 1547 1548 1549 1550 1550 1552 1552 1553 1554 1555 1555 1556 1557 1558 1558 1559 1560 1560 1561 1561 1562 1562 1563 1563
1524 1525 1526 1527 1528 1529 1530 1531 1532 1534 1535 1536 1537 1538 1539 1541 1542 1543 1545 1546 1547 1547 1548 1549 1550 1551 1552 1553 1553 1554 1555 1556 1556 1557 1558 1558 1559 1559 1560 1561 1561 1562 1562
1522 1523 1524 1525 1526 1527 1528 1529 1531 1532 1533 1534 1535 1536 1537 1539 1540 1542 1543 1544 1545 1546 1546 1548 1549 1549 1550 1551 1552 1553 1553 1554 1555 1556 1556 1557 1557 1558 1559 1559 1560 1561 1561
1519 1520 1521 1522 1524 1525 1526 1527 1529 1530 1531 1532 1533 1534 1535 1537 1538 1539 1541 1542 1543 1544 1545 1546 1547 1548 1548 1549 1550 1551 1551 1552 1553 1554 1554 1555 1556 1557 1557 1558 1559 1559 1559
1517 1518 1519 1520 1521 1522 1524 1525 1526 1528 1529 1530 1531 1532 1533 1534 1536 1537 1539 1540 1541 1542 1543 1544 1545 1546 1546 1547 1548 1549 1549 1550 1551 1551 1552 1553 1554 1555 1555 1556 1556 1557 1557
1514 1515 1516 1517 1519 1520 1521 1523 1524 1525 1527 1528 1529 1531 1532 1532 1533 1535 1536 1537 1538 1540 1541 1542 1543 1543 1544 1545 1546 1547 1547 1548 1548 1549 1550 1550 1551 1552 1553 1553 1554 1554 1555
1512 1513 1514 1515 1516 1517 1519 1520 1522 1523 1524 1526 1527 1529 1530 1532 1531 1532 1533 1534 1536 1537 1538 1539 1540 1541 1541 1542 1543 1544 1544 1545 1545 1546 1547 1548 1548 1549 1550 1551 1551 1552 1552
1509 1510 1511 1512 1513 1515 1516 1517 1519 1520 1522 1523 1525 1527 1528 1528 1529 1530 1530 1532 1533 1534 1535 1536 1537 1538 1539 1539 1540 1541 1541 1542 1542 1543 1544 1544 1545 1546 1547 1547 1548 1549 1549
1506 1507 1509 1510 1511 1512 1514 1515 1516 1518 1519 1520 1521 1523 1525 1525 1527 1527 1528 1529 1529 1530 1532 1533 1534 1534 1535 1536 1537 1537 1538 1539 1539 1540 1541 1542 1542 1543 1543 1544 1545 1545 1546
1504 1505 1506 1507 1508 1510 1511 1512 1513 1514 1516 1517 1518 1519 1521 1522 1524 1525 1526 1527 1527 1527 1528 1529 1530 1531 1531 1532 1533 1534 1534 1535 1536 1537 1537 1538 1539 1540 1540 1540 1541 1541 1542
1501 1502 1503 1504 1505 1507 1508 1509 1510 1511 1512 1514 1515 1516 1518 1519 1520 1522 1523 1523 1524 1524 1525 1525 1526 1527 1528 1529 1530 1530 1531 1532 1532 1533 1534 1534 1535 1536 1536 1537 1537 1537 1538
1498 1499 1500 1501 1502 1504 1505 1506 1507 1508 1509 1510 1511 1513 1514 1516 1517 1518 1520 1520 1521 1521 1522 1522 1523 1523 1524 1525 1526 1526 1527 1528 1529 1529 1530 1530 1531 1531 1532 1532 1532 1533 1533
1495 1497 1498 1499 1500 1501 1502 1503 1504 1505 1506 1507 1508 1509 1510 1511 1513 1515 1516 1517 1517 1518 1518 1519 1519 1520 1520 1521 1521 1522 1523 1523 1524 1525 1525 1526 1526 1527 1527 1527 1528 1528 1528
1493 1494 1495 1496 1497 1497 1499 1500 1501 1501 1502 1503 1504 1505 1506 1507 1509 1510 1512 1513 1515 1514 1514 1515 1515 1515 1516 1517 1517 1518 1518 1519 1519 1520 1520 1521 1522 1522 1522 1522 1522 1523 1523
1490 1491 1492 1493 1494 1494 1495 1496 1497 1498 1499 1500 1501 1502 1502 1503 1505 1506 1507 1509 1510 1511 1510 1510 1511 1512 1512 1513 1514 1514 1514 1514 1515 1515 1515 1516 1516 1517 1517 1517 1517 1517 1518
1488 1489 1490 1490 1491 1492 1492 1493 1494 1495 1495 1496 1497 1498 1498 1500 1501 1502 1503 1504 1505 1506 1506 1506 1507 1508 1508 1509 1509 1510 1510 1510 1510 1510 1510 1511 1511 1511 1511 1511 1512 1512 1513
1485 1486 1487 1487 1488 1489 1490 1490 1491 1492 1492 1493 1493 1494 1495 1496 1497 1498 1499 1500 1501 1502 1503 1502 1503 1504 1504 1505 1505 1505 1505 1505 1505 1505 1505 1505 1506 1506 1506 1506 1506 1507 1507
1483 1483 1484 1484 1485 1486 1486 1487 1488 1488 1489 1489 1490 1491 1492 1493 1493 1494 1494 1495 1497 1497 1498 1499 1499 1499 1500 1500 1501 1501 1501 1501 1501 1500 1500 1500 1500 1500 1500 1501 1501 1501 1502
1480 1481 1481 1482 1482 1483 1483 1484 1485 1485 1486 1486 1487 1488 1488 1489 1490 1490 1491 1492 1493 1493 1494 1494 1495 1496 1496 1496 1497 1496 1496 1496 1496 1496 1496 1495 1495 1495 1495 1495 1495 1495 1496
1478 1479 1479 1479 1480 1480 1480 1481 1482 1482 1483 1483 1484 1485 1485 1486 1486 1487 1487 1488 1489 1489 1490 1490 1491 1491 1491 1492 1492 1492 1492 1492 1492 1492 1491 1491 1490 1490 1490 1490 1490 1489 1490
1476 1477 1477 1477 1477 1478 1478 1479 1479 1479 1480 1481 1481 1481 1482 1482 1483 1483 1484 1484 1485 1485 1485 1486 1486 1486 1487 1488 1488 1488 1488 1487 1487 1487 1487 1486 1486 1485 1485 1485 1485 1484 1484
1474 1474 1475 1475 1475 1475 1476 1476 1477 1477 1477 1478 1478 1478 1479 1479 1479 1480 1480 1480 1481 1481 1482 1482 1482 1482 1483 1483 1484 1483 1483 1483 1483 1483 1483 1481 1482 1481 1481 1480 1480 1480 1480
1472 1472 1472 1473 1472 1473 1473 1474 1474 1474 1474 1475 1475 1475 1475 1475 1476 1476 1476 1476 1476 1477 1477 1478 1478 1478 1479 1479 1479 1480 1479 1479 1478 1478 1478 1477 1476 1476 1476 1475 1475 1475 1475
1470 1470 1470 1470 1470 1470 1471 1471 1472 1471 1471 1472 1472 1472 1472 1472 1472 1473 1473 1472 1472 1472 1473 1473 1474 1474 1474 1475 1475 1475 1474 1474 1473 1473 1473 1473 1472 1471 1471 1470 1470 1470 1470
1468 1468 1468 1468 1468 1468 1468 1469 1469 1469 1468 1468 1469 1469 1469 1469 1469 1469 1469 1469 1468 1469 1469 1469 1470 1470 1470 1470 1470 1470 1470 1470 1469 1469 1468 1469 1468 1468 1466 1465 1466 1466 1465